Bloomington, IN

12:10 PM EST on December 11, 2019 (GMT -0500)
Monroe County

Weather History for KBMG - November, 2019

Change the Weather History Date:

Tuesday, November 12, 2019

  Actual Average Record
Temperature  
Mean Temperature 14 °F 46 °F  
Max Temperature 22 °F 56 °F 72 °F (2010)
Min Temperature 6 °F 35 °F 19 °F (1996)
Degree Days  
Heating Degree Days 51 19  
Month to date heating degree days 328 207  
Since 1 July heating degree days 627 626  
Cooling Degree Days 0 0  
Month to date cooling degree days 0 0  
Year to date cooling degree days 1239 926  
Moisture  
Dew Point 6 °F    
Average Humidity 69    
Maximum Humidity 88    
Minimum Humidity 51    
Precipitation  
Precipitation T in 0.13 in 0.94 in (2008)
Month to date precipitation 0.60 1.63  
Year to date precipitation 42.79 41.70  
Sea Level Pressure  
Sea Level Pressure 30.45 in    
Wind  
Wind Speed 6 mph ()    
Max Wind Speed 16 mph    
Max Gust Speed 25 mph    
Visibility 9.5 miles    
Events Snow    
T = Trace of Precipitation, MM = Missing Value Source: Averaged Metar Reports

Daily Weather History Graph

Daily Weather History Graph

Search for Another Location

Airport or City:

Astronomy

Nov. 12, 2019 Rise Set
Actual Time 7:26 AM EST 5:34 PM EST
Civil Twilight 6:57 AM EST 6:03 PM EST
Nautical Twilight 6:25 AM EST 6:35 PM EST
Astronomical Twilight 5:53 AM EST 7:06 PM EST
Moon 6:01 PM EST (11/12) 7:17 AM EST (11/12)
Length of Visible Light 11h 05m
Length of Day
10h 08m
Full, 100% of the Moon is Illuminated
Nov 12
Full
Nov 19
Last Quarter
Nov 26
New
Dec 4
First Quarter
Dec 12
Full

Hourly Weather History & Observations

Time (EST) Temp. Windchill Dew Point Humidity Pressure Visibility Wind Dir Wind Speed Gust Speed Precip Events Conditions
12:15 AM 21.9 °F 11.7 °F 16.0 °F 78% 30.31 in 3.0 mi WNW 9.2 mph 19.6 mph 0.00 in Snow Light Snow
12:31 AM 21.0 °F 9.3 °F 15.1 °F 78% 30.31 in 6.0 mi NW 11.5 mph 21.9 mph 0.00 in Snow Light Snow
12:53 AM 19.9 °F 9.3 °F 12.9 °F 74% 30.34 in 8.0 mi NW 9.2 mph 20.7 mph 0.00 in Snow Light Snow
1:53 AM 19.0 °F 9.0 °F 10.9 °F 71% 30.35 in 10.0 mi NW 8.1 mph - 0.00 in   Overcast
2:53 AM 18.0 °F 6.1 °F 8.1 °F 65% 30.37 in 10.0 mi NNW 10.4 mph 24.2 mph N/A   Overcast
3:53 AM 15.1 °F 4.2 °F 7.0 °F 70% 30.39 in 10.0 mi NW 8.1 mph - N/A   Partly Cloudy
4:53 AM 12.9 °F 1.6 °F 3.9 °F 67% 30.41 in 10.0 mi NW 8.1 mph - N/A   Clear
5:53 AM 12.0 °F 1.5 °F 3.9 °F 70% 30.42 in 10.0 mi NW 6.9 mph - N/A   Clear
6:53 AM 10.9 °F 1.4 °F 3.0 °F 70% 30.44 in 10.0 mi WNW 5.8 mph - N/A   Clear
7:53 AM 10.0 °F 0.4 °F 3.0 °F 73% 30.46 in 10.0 mi WNW 5.8 mph - N/A   Clear
8:53 AM 10.9 °F 1.4 °F 3.9 °F 73% 30.50 in 10.0 mi NNW 5.8 mph - N/A   Clear
9:53 AM 12.9 °F 3.8 °F 5.0 °F 71% 30.51 in 10.0 mi NNW 5.8 mph - N/A   Clear
10:53 AM 16.0 °F 6.3 °F 5.0 °F 62% 30.52 in 10.0 mi NNW 6.9 mph - N/A   Clear
11:53 AM 18.0 °F 8.7 °F 6.1 °F 60% 30.51 in 10.0 mi North 6.9 mph - N/A   Clear
12:53 PM 19.9 °F 11.1 °F 7.0 °F 57% 30.49 in 10.0 mi NNW 6.9 mph - N/A   Partly Cloudy
1:53 PM 19.9 °F 12.1 °F 6.1 °F 55% 30.48 in 10.0 mi NNW 5.8 mph - N/A   Scattered Clouds
2:53 PM 21.0 °F 13.4 °F 8.1 °F 57% 30.48 in 10.0 mi WNW 5.8 mph - N/A   Mostly Cloudy
3:53 PM 21.0 °F 14.6 °F 7.0 °F 55% 30.48 in 10.0 mi WNW 4.6 mph - N/A   Mostly Cloudy
4:53 PM 19.9 °F 12.1 °F 5.0 °F 52% 30.48 in 10.0 mi West 5.8 mph - N/A   Partly Cloudy
5:53 PM 18.0 °F 12.7 °F 3.9 °F 54% 30.50 in 10.0 mi WNW 3.5 mph - N/A   Clear
6:53 PM 12.9 °F - 5.0 °F 71% 30.52 in 10.0 mi Calm Calm - N/A   Clear
7:53 PM 10.9 °F 2.9 °F 5.0 °F 77% 30.52 in 10.0 mi West 4.6 mph - N/A   Clear
8:53 PM 10.0 °F - 5.0 °F 80% 30.51 in 10.0 mi Calm Calm - N/A   Clear
9:53 PM 8.1 °F - 3.9 °F 83% 30.50 in 10.0 mi Calm Calm - N/A   Clear
10:53 PM 7.0 °F - 3.0 °F 84% 30.49 in 10.0 mi Calm Calm - N/A   Clear
11:53 PM 7.0 °F - 1.9 °F 80% 30.48 in 10.0 mi Calm Calm - N/A   Clear